Flag for Germany Weather past 2 weeks in Königs Wusterhausen, Brandenburg, Germany

Now
52 °F

Clear.


Feels Like: 51 °F
Forecast: 46 / 70 °F
Wind: 5 mph from South

Location: Berlin-Schoenefeld

Current Time: Aug 22, 2014 at 12:28:51 AM

Latest Report: Aug 21, 2014 at 11:50 PM


Visibility: 10 mi

Pressure: 29.98 "Hg

Humidity: 77%

Dew point: 45 °F

Location of Königs WusterhausenLocation

Historic Weather in Königs Wusterhausen — Graph

°F

Königs Wusterhausen temperature yesterday

Maximum temperature yesterday: 68 °F (at 4:20 PM)
Minimum temperature yesterday: 46 °F (at 5:50 AM)
Average temperature yesterday: 57 °F

Past Weeks' High & Low Weather Summary

 TemperatureHumidityPressure
High84 °F (Aug 9, 1:20 PM)100% (Aug 7, 6:20 AM)30.01 "Hg (Aug 7, 6:20 AM)
Low46 °F (Aug 21, 5:50 AM)31% (Aug 12, 6:20 PM)29.62 "Hg (Aug 13, 8:20 PM)
Average64 °F69%29.85 "Hg
* Reported Aug 6 11:20 PM — Aug 21 11:20 PM, Königs Wusterhausen, Weather by CustomWeather, © 2014

Note: Actual official high and low records may vary slightly from our data, if they occured in-between our weather recording intervals... More about our weather records

Advertising

Königs Wusterhausen weather history for previous 24 hours

 ConditionsComfort  
Time TempWeatherWind HumidityBarometerVisibility
11:20 PM
Aug 21
52 °FClear.6 mph77%29.98 "Hg10 mi
10:50 PM54 °FClear.5 mph72%29.98 "Hg10 mi
10:20 PM55 °FClear.3 mph67%29.98 "Hg10 mi
9:50 PM55 °FClear.3 mph72%29.98 "Hg10 mi
9:20 PM57 °FClear.5 mph63%29.98 "Hg10 mi
8:50 PM59 °FSunny.3 mph59%29.98 "Hg10 mi
8:20 PM59 °FSunny.5 mph59%29.98 "Hg10 mi
7:50 PM61 °FSunny.6 mph55%29.98 "Hg10 mi
7:20 PM63 °FScattered clouds.8 mph52%29.98 "HgN/A
6:50 PM64 °FScattered clouds.8 mph49%29.98 "HgN/A
6:20 PM64 °FScattered clouds.10 mph49%29.98 "HgN/A
5:50 PM66 °FScattered clouds.10 mph46%29.98 "HgN/A
5:20 PM64 °FScattered clouds.10 mph49%29.98 "HgN/A
4:50 PM66 °FScattered clouds.12 mph46%29.98 "HgN/A
4:20 PM68 °FScattered clouds.13 mph43%29.98 "HgN/A
3:50 PM66 °FScattered clouds.13 mph46%29.98 "HgN/A
3:20 PM66 °FScattered clouds.12 mph49%29.98 "HgN/A
2:50 PM64 °FScattered clouds.12 mph49%29.98 "HgN/A
2:20 PM64 °FPartly sunny.9 mph49%30.01 "HgN/A
1:50 PM63 °FPartly sunny.9 mph68%30.01 "HgN/A
1:20 PM63 °FPartly sunny.10 mph56%30.01 "HgN/A
12:50 PM64 °FPartly sunny.12 mph56%30.01 "HgN/A
12:20 PM63 °FScattered clouds.9 mph59%30.01 "HgN/A
11:50 AM61 °FScattered clouds.7 mph63%30.01 "HgN/A
11:20 AM59 °FScattered clouds.5 mph72%30.01 "HgN/A
10:50 AM57 °FBroken clouds.3 mph77%30.01 "HgN/A
10:20 AM55 °FLight rain. Partly sunny.5 mph82%30.01 "HgN/A
9:50 AM57 °FLight rain. Partly sunny.12 mph72%30.01 "HgN/A
9:20 AM57 °FSunny.12 mph72%30.01 "Hg10 mi
8:50 AM57 °FSunny.6 mph77%30.01 "Hg10 mi
8:20 AM54 °FSunny.5 mph82%30.01 "Hg10 mi
7:50 AM50 °FSunny.2 mph88%30.01 "Hg10 mi
7:20 AM48 °FSunny.2 mph94%29.98 "Hg10 mi
6:50 AM48 °FClear.3 mph87%29.98 "Hg10 mi
6:20 AM48 °FClear.6 mph87%29.98 "Hg10 mi
5:50 AM46 °FClear.5 mph87%29.98 "Hg10 mi
5:20 AM48 °FFog.5 mph87%29.98 "HgN/A
4:50 AM50 °FClear.5 mph82%29.98 "Hg10 mi
4:20 AM50 °FClear.5 mph82%29.98 "Hg10 mi
3:50 AM50 °FClear.5 mph82%29.98 "Hg10 mi
3:20 AM52 °FClear.2 mph82%29.98 "Hg10 mi
2:50 AM52 °FClear.3 mph82%29.98 "Hg10 mi
1:50 AM52 °FClear.3 mph77%29.98 "Hg10 mi
1:20 AM52 °FClear.3 mph77%29.98 "Hg10 mi
12:50 AM54 °FClear.5 mph77%29.98 "Hg10 mi
12:20 AM54 °FClear.3 mph77%29.98 "Hg10 mi
Weather by CustomWeather, © 2014

See weather overviewHow to use our weather pages